Time,TemperatureF,DewpointF,PressureIn,WindDirection,WindDirectionDegrees,WindSpeedMPH,WindSpeedGustMPH,Humidity,HourlyPrecipIn,Conditions,Clouds,dailyrainin,SolarRadiationWatts/m^2,SoftwareType,DateUTC
2013-12-13 00:02:00,33.0,20.0,-100.00,SE,142,7.0,10.0,58,0.00,,,0.00,0.000000,,2013-12-13 07:02:00,
2013-12-13 00:11:00,33.0,20.0,-100.00,SE,142,7.0,10.0,58,0.00,,,0.00,0.000000,,2013-12-13 07:11:00,
2013-12-13 00:42:00,32.0,18.0,-100.00,SSE,151,2.0,16.0,56,0.00,,,-99.99,0.000000,,2013-12-13 07:42:00,
2013-12-13 00:52:00,32.0,18.0,-100.00,SSE,151,2.0,16.0,56,0.00,,,-99.99,0.000000,,2013-12-13 07:52:00,
2013-12-13 01:02:00,32.0,18.0,-100.00,SSE,151,2.0,16.0,56,0.00,,,-99.99,0.000000,,2013-12-13 08:02:00,
2013-12-13 01:11:00,32.0,18.0,-100.00,SSE,151,2.0,16.0,56,0.00,,,-99.99,0.000000,,2013-12-13 08:11:00,
2013-12-13 01:42:00,32.0,19.0,-100.00,SSE,159,7.0,11.0,59,0.00,,,0.00,0.000000,,2013-12-13 08:42:00,
2013-12-13 01:52:00,32.0,19.0,-100.00,SSE,159,7.0,11.0,59,0.00,,,0.00,0.000000,,2013-12-13 08:52:00,
2013-12-13 02:02:00,32.0,19.0,-100.00,SSE,159,7.0,11.0,59,0.00,,,0.00,0.000000,,2013-12-13 09:02:00,
2013-12-13 02:12:00,32.0,19.0,-100.00,SSE,159,7.0,11.0,59,0.00,,,0.00,0.000000,,2013-12-13 09:12:00,
2013-12-13 02:43:00,31.0,21.0,-100.00,SSE,155,8.0,12.0,65,0.00,,,0.00,0.000000,,2013-12-13 09:43:00,
2013-12-13 02:54:00,31.0,21.0,-100.00,SSE,155,8.0,12.0,65,0.00,,,0.00,0.000000,,2013-12-13 09:54:00,
2013-12-13 03:03:00,31.0,21.0,-100.00,SSE,155,8.0,12.0,65,0.00,,,0.00,0.000000,,2013-12-13 10:03:00,
2013-12-13 03:12:00,31.0,21.0,-100.00,SSE,155,8.0,12.0,65,0.00,,,0.00,0.000000,,2013-12-13 10:12:00,
2013-12-13 03:43:00,31.0,22.0,-100.00,SSE,159,9.0,14.0,69,0.00,,,0.00,0.000000,,2013-12-13 10:43:00,
2013-12-13 03:53:00,31.0,22.0,-100.00,SSE,159,9.0,14.0,69,0.00,,,0.00,0.000000,,2013-12-13 10:53:00,
2013-12-13 04:02:00,31.0,22.0,-100.00,SSE,159,9.0,14.0,69,0.00,,,0.00,0.000000,,2013-12-13 11:02:00,
2013-12-13 04:12:00,31.0,22.0,-100.00,SSE,159,9.0,14.0,69,0.00,,,0.00,0.000000,,2013-12-13 11:12:00,
2013-12-13 04:42:00,31.0,21.0,-100.00,SSE,149,7.0,12.0,67,0.00,,,-99.99,0.000000,,2013-12-13 11:42:00,
2013-12-13 04:53:00,31.0,21.0,-100.00,SSE,149,7.0,12.0,67,0.00,,,-99.99,0.000000,,2013-12-13 11:53:00,
2013-12-13 05:02:00,31.0,21.0,-100.00,SSE,149,7.0,12.0,67,0.00,,,-99.99,0.000000,,2013-12-13 12:02:00,
2013-12-13 05:11:00,31.0,21.0,-100.00,SSE,149,7.0,12.0,67,0.00,,,-99.99,0.000000,,2013-12-13 12:11:00,
2013-12-13 05:42:00,30.0,20.0,-100.00,SE,131,6.0,13.0,67,0.00,,,0.00,0.000000,,2013-12-13 12:42:00,
2013-12-13 05:53:00,30.0,20.0,-100.00,SE,131,6.0,13.0,67,0.00,,,0.00,0.000000,,2013-12-13 12:53:00,
2013-12-13 06:01:00,30.0,20.0,-100.00,SE,131,6.0,13.0,67,0.00,,,0.00,0.000000,,2013-12-13 13:01:00,
2013-12-13 06:12:00,30.0,20.0,-100.00,SE,131,6.0,13.0,67,0.00,,,0.00,0.000000,,2013-12-13 13:12:00,
2013-12-13 06:42:00,31.0,21.0,-100.00,South,178,7.0,12.0,67,0.00,,,0.00,0.000000,,2013-12-13 13:42:00,
2013-12-13 06:52:00,31.0,21.0,-100.00,South,178,7.0,12.0,67,0.00,,,0.00,0.000000,,2013-12-13 13:52:00,
2013-12-13 07:02:00,31.0,21.0,-100.00,South,178,7.0,12.0,67,0.00,,,0.00,0.000000,,2013-12-13 14:02:00,
2013-12-13 07:11:00,31.0,21.0,-100.00,South,178,7.0,12.0,67,0.00,,,0.00,0.000000,,2013-12-13 14:11:00,
2013-12-13 07:43:00,30.0,21.0,-100.00,SSE,152,4.0,10.0,70,0.00,,,0.00,0.000000,,2013-12-13 14:43:00,
2013-12-13 07:53:00,30.0,21.0,-100.00,SSE,152,4.0,10.0,70,0.00,,,0.00,0.000000,,2013-12-13 14:53:00,
2013-12-13 08:02:00,30.0,21.0,-100.00,SSE,152,4.0,10.0,70,0.00,,,0.00,0.000000,,2013-12-13 15:02:00,
2013-12-13 08:11:00,30.0,21.0,-100.00,SSE,152,4.0,10.0,70,0.00,,,0.00,0.000000,,2013-12-13 15:11:00,
2013-12-13 08:44:00,29.0,22.0,-100.00,ESE,114,4.0,8.0,75,0.00,,,0.00,0.000000,,2013-12-13 15:44:00,
2013-12-13 08:53:00,29.0,22.0,-100.00,ESE,114,4.0,8.0,75,0.00,,,0.00,0.000000,,2013-12-13 15:53:00,
2013-12-13 09:03:00,29.0,22.0,-100.00,ESE,114,4.0,8.0,75,0.00,,,0.00,0.000000,,2013-12-13 16:03:00,
2013-12-13 09:13:00,29.0,22.0,-100.00,ESE,114,4.0,8.0,75,0.00,,,0.00,0.000000,,2013-12-13 16:13:00,
2013-12-13 09:43:00,30.0,23.0,-100.00,SSE,156,7.0,11.0,75,0.00,,,0.00,12.000000,,2013-12-13 16:43:00,
2013-12-13 09:53:00,30.0,23.0,-100.00,SSE,156,7.0,11.0,75,0.00,,,0.00,12.000000,,2013-12-13 16:53:00,
2013-12-13 10:02:00,30.0,23.0,-100.00,SSE,156,7.0,11.0,75,0.00,,,0.00,12.000000,,2013-12-13 17:02:00,
2013-12-13 10:12:00,30.0,23.0,-100.00,SSE,156,7.0,11.0,75,0.00,,,0.00,12.000000,,2013-12-13 17:12:00,
2013-12-13 10:43:00,31.0,22.0,-100.00,SE,143,7.0,10.0,68,0.00,,,0.00,46.000000,,2013-12-13 17:43:00,
2013-12-13 10:52:00,31.0,22.0,-100.00,SE,143,7.0,10.0,68,0.00,,,0.00,46.000000,,2013-12-13 17:52:00,
2013-12-13 11:02:00,31.0,22.0,-100.00,SE,143,7.0,10.0,68,0.00,,,0.00,46.000000,,2013-12-13 18:02:00,
2013-12-13 11:12:00,31.0,22.0,-100.00,SE,143,7.0,10.0,68,0.00,,,0.00,46.000000,,2013-12-13 18:12:00,
2013-12-13 11:42:00,33.0,22.0,-100.00,SSE,168,6.0,11.0,64,0.00,,,0.00,93.000000,,2013-12-13 18:42:00,
2013-12-13 11:52:00,33.0,22.0,-100.00,SSE,168,6.0,11.0,64,0.00,,,0.00,93.000000,,2013-12-13 18:52:00,
2013-12-13 12:02:00,33.0,22.0,-100.00,SSE,168,6.0,11.0,64,0.00,,,0.00,93.000000,,2013-12-13 19:02:00,
2013-12-13 12:12:00,33.0,22.0,-100.00,SSE,168,6.0,11.0,64,0.00,,,0.00,93.000000,,2013-12-13 19:12:00,
2013-12-13 12:42:00,33.0,22.0,-100.00,South,177,9.0,12.0,64,0.00,,,0.00,125.000000,,2013-12-13 19:42:00,
2013-12-13 12:52:00,33.0,22.0,-100.00,South,177,9.0,12.0,64,0.00,,,0.00,125.000000,,2013-12-13 19:52:00,
2013-12-13 13:02:00,33.0,22.0,-100.00,South,177,9.0,12.0,64,0.00,,,0.00,125.000000,,2013-12-13 20:02:00,
2013-12-13 13:11:00,33.0,22.0,-100.00,South,177,9.0,12.0,64,0.00,,,0.00,125.000000,,2013-12-13 20:11:00,
2013-12-13 13:42:00,34.0,23.0,-100.00,SW,217,6.0,10.0,64,0.00,,,0.00,116.000000,,2013-12-13 20:42:00,
2013-12-13 13:53:00,34.0,23.0,-100.00,SW,217,6.0,10.0,64,0.00,,,0.00,116.000000,,2013-12-13 20:53:00,
2013-12-13 14:02:00,34.0,23.0,-100.00,SW,217,6.0,10.0,64,0.00,,,0.00,116.000000,,2013-12-13 21:02:00,
2013-12-13 14:11:00,34.0,23.0,-100.00,SW,217,6.0,10.0,64,0.00,,,0.00,116.000000,,2013-12-13 21:11:00,
2013-12-13 14:43:00,35.0,24.0,-100.00,SW,220,5.0,10.0,63,0.00,,,0.00,142.000000,,2013-12-13 21:43:00,
2013-12-13 14:53:00,35.0,24.0,-100.00,SW,220,5.0,10.0,63,0.00,,,0.00,142.000000,,2013-12-13 21:53:00,
2013-12-13 15:03:00,35.0,24.0,-100.00,SW,220,5.0,10.0,63,0.00,,,0.00,142.000000,,2013-12-13 22:03:00,
2013-12-13 15:13:00,35.0,24.0,-100.00,SW,220,5.0,10.0,63,0.00,,,0.00,142.000000,,2013-12-13 22:13:00,
2013-12-13 15:53:00,35.0,24.0,-100.00,SW,220,3.0,8.0,65,0.00,,,0.00,144.000000,,2013-12-13 22:53:00,
2013-12-13 16:03:00,35.0,24.0,-100.00,SW,220,3.0,8.0,65,0.00,,,0.00,144.000000,,2013-12-13 23:03:00,
2013-12-13 16:12:00,35.0,24.0,-100.00,SW,220,3.0,8.0,65,0.00,,,0.00,144.000000,,2013-12-13 23:12:00,
2013-12-13 16:42:00,34.0,25.0,-100.00,ESE,106,2.0,6.0,68,0.00,,,0.00,93.000000,,2013-12-13 23:42:00,
2013-12-13 16:53:00,34.0,25.0,-100.00,ESE,106,2.0,6.0,68,0.00,,,0.00,93.000000,,2013-12-13 23:53:00,
2013-12-13 17:02:00,34.0,25.0,-100.00,ESE,106,2.0,6.0,68,0.00,,,0.00,93.000000,,2013-12-14 00:02:00,
2013-12-13 17:11:00,34.0,25.0,-100.00,ESE,106,2.0,6.0,68,0.00,,,0.00,93.000000,,2013-12-14 00:11:00,
2013-12-13 17:42:00,32.0,25.0,-100.00,ESE,112,3.0,7.0,74,0.00,,,0.00,10.000000,,2013-12-14 00:42:00,
2013-12-13 17:52:00,32.0,25.0,-100.00,ESE,112,3.0,7.0,74,0.00,,,0.00,10.000000,,2013-12-14 00:52:00,
2013-12-13 18:02:00,32.0,25.0,-100.00,ESE,112,3.0,7.0,74,0.00,,,0.00,10.000000,,2013-12-14 01:02:00,
2013-12-13 18:11:00,32.0,25.0,-100.00,ESE,112,3.0,7.0,74,0.00,,,0.00,10.000000,,2013-12-14 01:11:00,
2013-12-13 18:42:00,32.0,25.0,-100.00,SE,126,5.0,10.0,75,0.00,,,0.00,0.000000,,2013-12-14 01:42:00,
2013-12-13 18:52:00,32.0,25.0,-100.00,SE,126,5.0,10.0,75,0.00,,,0.00,0.000000,,2013-12-14 01:52:00,
2013-12-13 19:01:00,32.0,25.0,-100.00,SE,126,5.0,10.0,75,0.00,,,0.00,0.000000,,2013-12-14 02:01:00,
2013-12-13 19:11:00,32.0,25.0,-100.00,SE,126,5.0,10.0,75,0.00,,,0.00,0.000000,,2013-12-14 02:11:00,
2013-12-13 19:42:00,32.0,25.0,-100.00,ESE,113,5.0,10.0,76,0.00,,,0.00,0.000000,,2013-12-14 02:42:00,
2013-12-13 19:52:00,32.0,25.0,-100.00,ESE,113,5.0,10.0,76,0.00,,,0.00,0.000000,,2013-12-14 02:52:00,
2013-12-13 20:02:00,32.0,25.0,-100.00,ESE,113,5.0,10.0,76,0.00,,,0.00,0.000000,,2013-12-14 03:02:00,
2013-12-13 20:12:00,32.0,25.0,-100.00,ESE,113,5.0,10.0,76,0.00,,,0.00,0.000000,,2013-12-14 03:12:00,
2013-12-13 20:43:00,31.0,26.0,-100.00,SE,133,3.0,7.0,82,0.00,,,0.00,0.000000,,2013-12-14 03:43:00,
2013-12-13 20:54:00,31.0,26.0,-100.00,SE,133,3.0,7.0,82,0.00,,,0.00,0.000000,,2013-12-14 03:54:00,
2013-12-13 21:03:00,31.0,26.0,-100.00,SE,133,3.0,7.0,82,0.00,,,0.00,0.000000,,2013-12-14 04:03:00,
2013-12-13 21:13:00,31.0,26.0,-100.00,SE,133,3.0,7.0,82,0.00,,,0.00,0.000000,,2013-12-14 04:13:00,
2013-12-13 21:43:00,30.0,25.0,-100.00,ESE,116,5.0,6.0,82,0.00,,,0.00,0.000000,,2013-12-14 04:43:00,
2013-12-13 21:53:00,30.0,25.0,-100.00,ESE,116,5.0,6.0,82,0.00,,,0.00,0.000000,,2013-12-14 04:53:00,
2013-12-13 22:03:00,30.0,25.0,-100.00,ESE,116,5.0,6.0,82,0.00,,,0.00,0.000000,,2013-12-14 05:03:00,
2013-12-13 22:12:00,30.0,25.0,-100.00,ESE,116,5.0,6.0,82,0.00,,,0.00,0.000000,,2013-12-14 05:12:00,
2013-12-13 22:42:00,32.0,26.0,-100.00,SSE,155,5.0,10.0,78,0.00,,,0.00,0.000000,,2013-12-14 05:42:00,
2013-12-13 22:53:00,32.0,26.0,-100.00,SSE,155,5.0,10.0,78,0.00,,,0.00,0.000000,,2013-12-14 05:53:00,
2013-12-13 23:02:00,32.0,26.0,-100.00,SSE,155,5.0,10.0,78,0.00,,,0.00,0.000000,,2013-12-14 06:02:00,
2013-12-13 23:11:00,32.0,26.0,-100.00,SSE,155,5.0,10.0,78,0.00,,,0.00,0.000000,,2013-12-14 06:11:00,
2013-12-13 23:42:00,32.0,25.0,-100.00,SSE,155,6.0,12.0,74,0.00,,,0.00,0.000000,,2013-12-14 06:42:00,
2013-12-13 23:52:00,32.0,25.0,-100.00,SSE,155,6.0,12.0,74,0.00,,,0.00,0.000000,,2013-12-14 06:52:00,